Location: Gniazdowice
(50.2124°N, 20.2673°E)
Time: 15:18:00
(UTC+00:00)

MSX - Pass Details

Date: 23 May 2024
Orbit: 893 x 906 km, 99.0° (Epoch: 12 June)

Event Time Altitude Azimuth Distance (km) Brightness Sun altitude
Rises 00:20:16 0° 17° (NNE) 3,526 8.7 -15.5°
Reaches altitude 10° 00:22:44 10° 21° (NNE) 2,580 7.6 -15.3°
Maximum altitude 00:28:25 60° 102° (ESE) 1,019 4.2 -14.9°
Enters shadow 00:32:53 17° 179° (S) 2,127 5.3 -14.6°
